JBU215 KSMF-KSAN

Flight info

Callsign JBU215
Flight time 1h 18m
Altitude 39000
Route FTHIL3 FRA EHF HUULK COMIX2
Aircraft A20N/M-SDE2E3FGHIRWXY/LB1

Departure

Time 2026-05-05 02:53
Airport Sacramento International Airport (KSMF)

Arrival

Time 2026-05-05 04:12
Airport San Diego International Airport (KSAN)
Time Latitude Longitude Altitude Speed Heading
2026-05-05 02:29 38.69297 -121.59433 29 ft 0 kts 135°
2026-05-05 02:37 38.69304 -121.59441 29 ft 2 kts 135°
2026-05-05 02:37 38.69314 -121.59454 29 ft 2 kts 135°
2026-05-05 02:38 38.69324 -121.59467 29 ft 1 kts 146°
2026-05-05 02:38 38.69337 -121.59473 29 ft 1 kts 185°
2026-05-05 02:38 38.69350 -121.59468 29 ft 1 kts 210°
2026-05-05 02:38 38.69356 -121.59463 29 ft 1 kts 229°
2026-05-05 02:39 38.69360 -121.59457 29 ft 0 kts 225°
2026-05-05 02:41 38.69359 -121.59459 29 ft 1 kts 225°
2026-05-05 02:41 38.69344 -121.59479 29 ft 4 kts 225°
2026-05-05 02:41 38.69313 -121.59518 28 ft 7 kts 225°
2026-05-05 02:42 38.69272 -121.59570 28 ft 9 kts 225°
2026-05-05 02:42 38.69228 -121.59641 28 ft 10 kts 242°
2026-05-05 02:42 38.69210 -121.59740 28 ft 12 kts 267°
2026-05-05 02:42 38.69228 -121.59849 28 ft 13 kts 313°
2026-05-05 02:43 38.69323 -121.59869 28 ft 14 kts
2026-05-05 02:43 38.69427 -121.59866 28 ft 15 kts
2026-05-05 02:43 38.69533 -121.59866 28 ft 16 kts 358°
2026-05-05 02:43 38.69645 -121.59866 28 ft 17 kts
2026-05-05 02:44 38.69764 -121.59868 28 ft 17 kts
2026-05-05 02:44 38.69878 -121.59860 28 ft 17 kts
2026-05-05 02:44 38.70008 -121.59858 28 ft 18 kts
2026-05-05 02:44 38.70137 -121.59856 28 ft 18 kts
2026-05-05 02:45 38.70267 -121.59855 28 ft 19 kts
2026-05-05 02:45 38.70399 -121.59851 28 ft 19 kts 359°
2026-05-05 02:45 38.70532 -121.59849 28 ft 17 kts 360°
2026-05-05 02:45 38.70628 -121.59848 28 ft 10 kts
2026-05-05 02:46 38.70658 -121.59847 28 ft 4 kts
2026-05-05 02:46 38.70696 -121.59856 28 ft 6 kts 333°
2026-05-05 02:46 38.70715 -121.59885 28 ft 0 kts 291°
2026-05-05 02:47 38.70716 -121.59888 28 ft 1 kts 291°
2026-05-05 02:47 38.70719 -121.59907 28 ft 3 kts 276°
2026-05-05 02:47 38.70720 -121.59939 28 ft 4 kts 270°
2026-05-05 02:48 38.70720 -121.59978 28 ft 0 kts 270°
2026-05-05 02:50 38.70720 -121.59987 28 ft 2 kts 270°
2026-05-05 02:50 38.70720 -121.60023 28 ft 5 kts 269°
2026-05-05 02:51 38.70710 -121.60083 28 ft 7 kts 235°
2026-05-05 02:51 38.70658 -121.60111 28 ft 9 kts 181°
2026-05-05 02:51 38.70633 -121.60111 28 ft 0 kts 180°
2026-05-05 02:52 38.70624 -121.60111 28 ft 12 kts 180°
2026-05-05 02:52 38.70262 -121.60116 29 ft 91 kts 180°
2026-05-05 02:52 38.69389 -121.60132 36 ft 154 kts 179°
2026-05-05 02:53 38.68232 -121.60144 399 ft 178 kts 180°
2026-05-05 02:53 38.67005 -121.59986 1291 ft 177 kts 158°
2026-05-05 02:53 38.66152 -121.58989 2190 ft 172 kts 126°
2026-05-05 02:53 38.65512 -121.57613 2733 ft 188 kts 120°
2026-05-05 02:54 38.64892 -121.56178 3218 ft 203 kts 122°
2026-05-05 02:54 38.64144 -121.54535 3677 ft 226 kts 122°
2026-05-05 02:54 38.63303 -121.52778 4245 ft 245 kts 122°
2026-05-05 02:54 38.62365 -121.50877 4890 ft 263 kts 123°
2026-05-05 02:55 38.61362 -121.48878 5700 ft 274 kts 123°
2026-05-05 02:55 38.60329 -121.46836 6729 ft 275 kts 123°
2026-05-05 02:55 38.59326 -121.44874 7682 ft 278 kts 122°
2026-05-05 02:55 38.58333 -121.42937 8539 ft 283 kts 121°
2026-05-05 02:56 38.57330 -121.40979 9376 ft 288 kts 121°
2026-05-05 02:56 38.56225 -121.38824 10268 ft 293 kts 120°
2026-05-05 02:56 38.55129 -121.36675 10900 ft 306 kts 120°
2026-05-05 02:56 38.53914 -121.34296 11429 ft 324 kts 121°
2026-05-05 02:57 38.52664 -121.31860 12194 ft 331 kts 121°
2026-05-05 02:57 38.51388 -121.29385 13101 ft 334 kts 121°
2026-05-05 02:57 38.50128 -121.26942 13968 ft 336 kts 121°
2026-05-05 02:57 38.48840 -121.24441 14808 ft 340 kts 120°
2026-05-05 02:58 38.47532 -121.21909 15618 ft 343 kts 120°
2026-05-05 02:58 38.46222 -121.19370 16419 ft 347 kts 120°
2026-05-05 02:58 38.44891 -121.16793 17205 ft 350 kts 119°
2026-05-05 02:58 38.43525 -121.14148 17986 ft 353 kts 119°
2026-05-05 02:59 38.42193 -121.11571 18698 ft 356 kts 118°
2026-05-05 02:59 38.40812 -121.08901 19416 ft 359 kts 118°
2026-05-05 02:59 38.39499 -121.06369 20104 ft 361 kts 118°
2026-05-05 02:59 38.38095 -121.03658 20803 ft 364 kts 118°
2026-05-05 03:00 38.36685 -121.00937 21465 ft 367 kts 118°
2026-05-05 03:00 38.35403 -120.98470 22062 ft 370 kts 118°
2026-05-05 03:00 38.34060 -120.95887 22689 ft 372 kts 117°
2026-05-05 03:00 38.32623 -120.93123 23354 ft 375 kts 118°
2026-05-05 03:01 38.31221 -120.90427 23954 ft 378 kts 117°
2026-05-05 03:01 38.29769 -120.87643 24589 ft 380 kts 117°
2026-05-05 03:01 38.28294 -120.84820 25238 ft 381 kts 117°
2026-05-05 03:01 38.26873 -120.82094 25812 ft 383 kts 117°
2026-05-05 03:02 38.25387 -120.79249 26354 ft 386 kts 116°
2026-05-05 03:02 38.23898 -120.76400 26877 ft 389 kts 116°
2026-05-05 03:02 38.22413 -120.73560 27395 ft 392 kts 116°
2026-05-05 03:02 38.20985 -120.70831 27880 ft 394 kts 116°
2026-05-05 03:03 38.19516 -120.68029 28362 ft 396 kts 116°
2026-05-05 03:03 38.18068 -120.65265 28837 ft 398 kts 116°
2026-05-05 03:03 38.16466 -120.62215 29293 ft 402 kts 116°
2026-05-05 03:03 38.14904 -120.59238 29745 ft 404 kts 116°
2026-05-05 03:04 38.13339 -120.56265 30185 ft 407 kts 115°
2026-05-05 03:04 38.11780 -120.53295 30542 ft 410 kts 116°
2026-05-05 03:04 38.10204 -120.50298 30992 ft 410 kts 116°
2026-05-05 03:04 38.08609 -120.47265 31469 ft 409 kts 117°
2026-05-05 03:05 38.07139 -120.44476 31875 ft 409 kts 117°
2026-05-05 03:05 38.05500 -120.41389 32303 ft 409 kts 118°
2026-05-05 03:05 38.03894 -120.38480 32719 ft 409 kts 120°
2026-05-05 03:05 38.02267 -120.35570 33067 ft 409 kts 120°
2026-05-05 03:06 38.00629 -120.32644 33356 ft 410 kts 121°
2026-05-05 03:06 37.98983 -120.29724 33627 ft 411 kts 123°
2026-05-05 03:06 37.97330 -120.27093 33883 ft 414 kts 127°
2026-05-05 03:06 37.95376 -120.24381 34210 ft 416 kts 131°
2026-05-05 03:07 37.93527 -120.22141 34494 ft 418 kts 135°
2026-05-05 03:07 37.91166 -120.19643 34802 ft 420 kts 140°
2026-05-05 03:07 37.88764 -120.17464 35091 ft 422 kts 144°
2026-05-05 03:07 37.86270 -120.15511 35387 ft 422 kts 147°
2026-05-05 03:08 37.83744 -120.13625 35664 ft 422 kts 148°
2026-05-05 03:08 37.81189 -120.11730 35934 ft 422 kts 148°
2026-05-05 03:08 37.78661 -120.09857 36210 ft 421 kts 149°
2026-05-05 03:08 37.76103 -120.07958 36482 ft 421 kts 149°
2026-05-05 03:09 37.73594 -120.06094 36708 ft 421 kts 149°
2026-05-05 03:09 37.71043 -120.04198 36946 ft 421 kts 150°
2026-05-05 03:09 37.68519 -120.02324 37134 ft 422 kts 150°
2026-05-05 03:09 37.65998 -120.00452 37338 ft 423 kts 150°
2026-05-05 03:10 37.63439 -119.98557 37554 ft 423 kts 151°
2026-05-05 03:10 37.60890 -119.96671 37754 ft 424 kts 151°
2026-05-05 03:10 37.58307 -119.94761 37941 ft 424 kts 151°
2026-05-05 03:10 37.55826 -119.92924 38118 ft 425 kts 152°
2026-05-05 03:11 37.53427 -119.91151 38280 ft 425 kts 152°
2026-05-05 03:11 37.50909 -119.89292 38469 ft 426 kts 152°
2026-05-05 03:11 37.48683 -119.87649 38620 ft 427 kts 152°
2026-05-05 03:11 37.45887 -119.85589 38833 ft 428 kts 152°
2026-05-05 03:12 37.43480 -119.83816 38962 ft 429 kts 152°
2026-05-05 03:12 37.38369 -119.80057 38961 ft 430 kts 152°
2026-05-05 03:13 37.33300 -119.76327 38969 ft 429 kts 152°
2026-05-05 03:13 37.28192 -119.72577 38954 ft 429 kts 152°
2026-05-05 03:14 37.23074 -119.68825 38965 ft 429 kts 152°
2026-05-05 03:14 37.17956 -119.65087 38967 ft 429 kts 152°
2026-05-05 03:15 37.12930 -119.61672 38957 ft 426 kts 158°
2026-05-05 03:15 37.07525 -119.58910 38970 ft 421 kts 164°
2026-05-05 03:16 37.01870 -119.56895 38978 ft 419 kts 168°
2026-05-05 03:16 36.96227 -119.55134 38983 ft 421 kts 168°
2026-05-05 03:17 36.90643 -119.53386 38978 ft 420 kts 168°
2026-05-05 03:17 36.85041 -119.51638 38977 ft 418 kts 169°
2026-05-05 03:18 36.79496 -119.49909 38972 ft 419 kts 169°
2026-05-05 03:18 36.73931 -119.48173 38971 ft 418 kts 169°
2026-05-05 03:19 36.65626 -119.45595 38971 ft 417 kts 169°
2026-05-05 03:19 36.59999 -119.43848 38974 ft 416 kts 169°
2026-05-05 03:20 36.54377 -119.42106 38971 ft 416 kts 169°
2026-05-05 03:20 36.48784 -119.40377 38966 ft 417 kts 169°
2026-05-05 03:21 36.43166 -119.38641 38970 ft 416 kts 169°
2026-05-05 03:21 36.37587 -119.36921 38973 ft 415 kts 169°
2026-05-05 03:22 36.32350 -119.35308 38974 ft 415 kts 169°
2026-05-05 03:22 36.26869 -119.33621 38966 ft 414 kts 170°
2026-05-05 03:23 36.21319 -119.31916 38975 ft 412 kts 170°
2026-05-05 03:23 36.15710 -119.30196 38972 ft 412 kts 170°
2026-05-05 03:24 36.10155 -119.28497 38967 ft 411 kts 170°
2026-05-05 03:24 36.04643 -119.26811 38974 ft 412 kts 170°
2026-05-05 03:25 35.99066 -119.25106 39022 ft 412 kts 170°
2026-05-05 03:25 35.93483 -119.23405 38985 ft 412 kts 170°
2026-05-05 03:26 35.87922 -119.21709 38967 ft 411 kts 171°
2026-05-05 03:26 35.82431 -119.20041 38975 ft 411 kts 171°
2026-05-05 03:27 35.76882 -119.18358 38963 ft 411 kts 171°
2026-05-05 03:27 35.71492 -119.16724 38973 ft 409 kts 171°
2026-05-05 03:28 35.65944 -119.15043 38953 ft 408 kts 171°
2026-05-05 03:28 35.60397 -119.13364 38966 ft 408 kts 171°
2026-05-05 03:29 35.54853 -119.11692 38961 ft 408 kts 171°
2026-05-05 03:29 35.49466 -119.09883 38970 ft 411 kts 167°
2026-05-05 03:30 35.44071 -119.07321 38965 ft 415 kts 161°
2026-05-05 03:30 35.38990 -119.04483 38974 ft 416 kts 161°
2026-05-05 03:31 35.33764 -119.01570 38970 ft 415 kts 161°
2026-05-05 03:31 35.28572 -118.98679 38972 ft 416 kts 162°
2026-05-05 03:32 35.23326 -118.95760 38961 ft 415 kts 162°
2026-05-05 03:32 35.18118 -118.92868 38972 ft 416 kts 162°
2026-05-05 03:33 35.12823 -118.89930 38967 ft 414 kts 162°
2026-05-05 03:33 35.07626 -118.87052 38964 ft 414 kts 162°
2026-05-05 03:34 35.02372 -118.84145 38961 ft 414 kts 162°
2026-05-05 03:34 34.97128 -118.81249 38967 ft 414 kts 162°
2026-05-05 03:35 34.91968 -118.78397 38967 ft 413 kts 163°
2026-05-05 03:35 34.86955 -118.75643 38963 ft 414 kts 163°
2026-05-05 03:36 34.81650 -118.72720 38966 ft 413 kts 163°
2026-05-05 03:36 34.76542 -118.69916 38950 ft 412 kts 163°
2026-05-05 03:37 34.71389 -118.67086 38983 ft 412 kts 163°
2026-05-05 03:37 34.66160 -118.64220 38968 ft 410 kts 164°
2026-05-05 03:38 34.60984 -118.61378 38970 ft 411 kts 163°
2026-05-05 03:38 34.56117 -118.58239 38970 ft 417 kts 158°
2026-05-05 03:39 34.51128 -118.54677 38973 ft 418 kts 158°
2026-05-05 03:39 34.46135 -118.51115 38967 ft 418 kts 158°
2026-05-05 03:40 34.41125 -118.47548 38994 ft 417 kts 159°
2026-05-05 03:40 34.36155 -118.44016 39005 ft 418 kts 158°
2026-05-05 03:41 34.31193 -118.40491 38999 ft 416 kts 159°
2026-05-05 03:41 34.26325 -118.37039 38993 ft 416 kts 159°
2026-05-05 03:42 34.21381 -118.33546 39013 ft 416 kts 159°
2026-05-05 03:42 34.16494 -118.30084 38996 ft 414 kts 160°
2026-05-05 03:43 34.14068 -118.28366 38658 ft 414 kts 160°
2026-05-05 03:43 34.11568 -118.26601 37511 ft 418 kts 160°
2026-05-05 03:43 34.09034 -118.24815 36338 ft 417 kts 161°
2026-05-05 03:43 34.06602 -118.23083 35851 ft 400 kts 161°
2026-05-05 03:44 34.04306 -118.21455 35370 ft 394 kts 162°
2026-05-05 03:44 34.01935 -118.19788 34602 ft 392 kts 162°
2026-05-05 03:44 33.99556 -118.18124 34182 ft 395 kts 163°
2026-05-05 03:44 33.97188 -118.16469 33741 ft 396 kts 163°
2026-05-05 03:45 33.94826 -118.14813 33112 ft 398 kts 163°
2026-05-05 03:45 33.92542 -118.13211 32591 ft 399 kts 163°
2026-05-05 03:45 33.90132 -118.11523 32011 ft 399 kts 162°
2026-05-05 03:45 33.87844 -118.09923 31411 ft 401 kts 162°
2026-05-05 03:46 33.85426 -118.08231 30744 ft 403 kts 162°
2026-05-05 03:46 33.83003 -118.06566 30097 ft 402 kts 163°
2026-05-05 03:46 33.80560 -118.04946 29627 ft 397 kts 163°
2026-05-05 03:46 33.78253 -118.03423 29173 ft 393 kts 163°
2026-05-05 03:47 33.75896 -118.01872 28695 ft 389 kts 163°
2026-05-05 03:47 33.73511 -118.00301 28202 ft 386 kts 162°
2026-05-05 03:47 33.71246 -117.98810 27643 ft 386 kts 162°
2026-05-05 03:47 33.69079 -117.97385 27115 ft 385 kts 161°
2026-05-05 03:48 33.66673 -117.95798 26587 ft 383 kts 161°
2026-05-05 03:48 33.64315 -117.94241 26092 ft 381 kts 160°
2026-05-05 03:48 33.61998 -117.92712 25528 ft 381 kts 160°
2026-05-05 03:48 33.59887 -117.91316 24981 ft 375 kts 159°
2026-05-05 03:49 33.57625 -117.89820 24416 ft 365 kts 159°
2026-05-05 03:49 33.55469 -117.88399 23899 ft 359 kts 159°
2026-05-05 03:49 33.53303 -117.86955 23369 ft 355 kts 157°
2026-05-05 03:49 33.51157 -117.85493 22825 ft 351 kts 156°
2026-05-05 03:50 33.49015 -117.84023 22344 ft 348 kts 156°
2026-05-05 03:50 33.47073 -117.82695 21903 ft 346 kts 156°
2026-05-05 03:50 33.45020 -117.81173 21470 ft 346 kts 152°
2026-05-05 03:50 33.43069 -117.79483 21038 ft 347 kts 147°
2026-05-05 03:51 33.41195 -117.77589 20587 ft 347 kts 144°
2026-05-05 03:51 33.39392 -117.75658 20166 ft 345 kts 144°
2026-05-05 03:51 33.37598 -117.73731 19715 ft 343 kts 143°
2026-05-05 03:51 33.36006 -117.72021 19306 ft 342 kts 143°
2026-05-05 03:52 33.34285 -117.70181 18895 ft 339 kts 143°
2026-05-05 03:52 33.32771 -117.68562 18524 ft 338 kts 142°
2026-05-05 03:52 33.30790 -117.66445 18049 ft 335 kts 142°
2026-05-05 03:52 33.29063 -117.64600 17619 ft 333 kts 142°
2026-05-05 03:53 33.27443 -117.62871 17223 ft 331 kts 142°
2026-05-05 03:53 33.25695 -117.61012 16780 ft 330 kts 142°
2026-05-05 03:53 33.23992 -117.59204 16342 ft 327 kts 142°
2026-05-05 03:53 33.22328 -117.57449 15940 ft 325 kts 142°
2026-05-05 03:54 33.20574 -117.55606 15500 ft 324 kts 142°
2026-05-05 03:54 33.18867 -117.53812 15076 ft 322 kts 142°
2026-05-05 03:54 33.17179 -117.52035 14643 ft 320 kts 142°
2026-05-05 03:54 33.15516 -117.50288 14229 ft 318 kts 142°
2026-05-05 03:55 33.13837 -117.48583 13813 ft 316 kts 145°
2026-05-05 03:55 33.12050 -117.47002 13394 ft 312 kts 148°
2026-05-05 03:55 33.10284 -117.45528 12979 ft 312 kts 148°
2026-05-05 03:55 33.08495 -117.44039 12549 ft 311 kts 148°
2026-05-05 03:56 33.06707 -117.42553 12125 ft 311 kts 148°
2026-05-05 03:56 33.04927 -117.41073 11707 ft 312 kts 148°
2026-05-05 03:56 33.03146 -117.39584 11291 ft 312 kts 148°
2026-05-05 03:56 33.01361 -117.38084 10862 ft 313 kts 148°
2026-05-05 03:57 32.99588 -117.36594 10507 ft 310 kts 148°
2026-05-05 03:57 32.97830 -117.35117 10271 ft 301 kts 148°
2026-05-05 03:57 32.96247 -117.33787 10142 ft 291 kts 148°
2026-05-05 03:57 32.94616 -117.32420 10012 ft 280 kts 148°
2026-05-05 03:58 32.93052 -117.31108 9896 ft 269 kts 149°
2026-05-05 03:58 32.91547 -117.29848 9769 ft 260 kts 149°
2026-05-05 03:58 32.90061 -117.28612 9461 ft 260 kts 149°
2026-05-05 03:58 32.88590 -117.27393 9157 ft 259 kts 149°
2026-05-05 03:59 32.87091 -117.26150 8847 ft 258 kts 149°
2026-05-05 03:59 32.85637 -117.24944 8550 ft 257 kts 149°
2026-05-05 03:59 32.84182 -117.23736 8258 ft 256 kts 148°
2026-05-05 03:59 32.82758 -117.22553 7968 ft 255 kts 149°
2026-05-05 04:00 32.81462 -117.21258 7663 ft 259 kts 131°
2026-05-05 04:00 32.80637 -117.19344 7360 ft 261 kts 108°
2026-05-05 04:00 32.80181 -117.17271 7074 ft 261 kts 104°
2026-05-05 04:00 32.79769 -117.15196 6782 ft 260 kts 105°
2026-05-05 04:01 32.79352 -117.13158 6496 ft 259 kts 105°
2026-05-05 04:01 32.78910 -117.11096 6233 ft 256 kts 105°
2026-05-05 04:01 32.78464 -117.09061 6055 ft 248 kts 106°
2026-05-05 04:01 32.78055 -117.07099 5946 ft 248 kts 103°
2026-05-05 04:02 32.77726 -117.05096 5557 ft 259 kts 101°
2026-05-05 04:02 32.77409 -117.02997 5166 ft 261 kts 101°
2026-05-05 04:02 32.77095 -117.00878 4968 ft 253 kts 101°
2026-05-05 04:02 32.76801 -116.98866 4953 ft 238 kts 101°
2026-05-05 04:03 32.76527 -116.96997 4950 ft 228 kts 101°
2026-05-05 04:03 32.76255 -116.95138 4961 ft 228 kts 101°
2026-05-05 04:03 32.75981 -116.93291 4966 ft 228 kts 101°
2026-05-05 04:03 32.75705 -116.91431 4965 ft 228 kts 101°
2026-05-05 04:04 32.75386 -116.89613 4961 ft 229 kts 112°
2026-05-05 04:04 32.74454 -116.88047 4994 ft 235 kts 145°
2026-05-05 04:04 32.73031 -116.87330 4963 ft 210 kts 179°
2026-05-05 04:04 32.71684 -116.87623 4987 ft 193 kts 205°
2026-05-05 04:05 32.70608 -116.88530 4956 ft 185 kts 237°
2026-05-05 04:05 32.70038 -116.89865 4992 ft 176 kts 249°
2026-05-05 04:05 32.69627 -116.91119 4950 ft 160 kts 252°
2026-05-05 04:05 32.69326 -116.92347 4954 ft 156 kts 257°
2026-05-05 04:06 32.69105 -116.93621 4969 ft 159 kts 261°
2026-05-05 04:06 32.68950 -116.94936 4969 ft 160 kts 264°
2026-05-05 04:06 32.68860 -116.96251 4849 ft 162 kts 266°
2026-05-05 04:06 32.68820 -116.97626 4331 ft 175 kts 267°
2026-05-05 04:07 32.68827 -116.99092 3781 ft 183 kts 273°
2026-05-05 04:07 32.69000 -117.00577 3396 ft 180 kts 279°
2026-05-05 04:07 32.69270 -117.01985 3139 ft 170 kts 283°
2026-05-05 04:07 32.69566 -117.03291 2889 ft 158 kts 284°
2026-05-05 04:08 32.69852 -117.04484 2655 ft 148 kts 284°
2026-05-05 04:08 32.70119 -117.05585 2446 ft 139 kts 284°
2026-05-05 04:08 32.70386 -117.06690 2248 ft 139 kts 284°
2026-05-05 04:08 32.70646 -117.07774 2055 ft 138 kts 284°
2026-05-05 04:09 32.70898 -117.08817 1813 ft 130 kts 284°
2026-05-05 04:09 32.71138 -117.09807 1626 ft 125 kts 284°
2026-05-05 04:09 32.71380 -117.10815 1442 ft 125 kts 284°
2026-05-05 04:09 32.71617 -117.11802 1246 ft 125 kts 284°
2026-05-05 04:10 32.71858 -117.12766 1059 ft 124 kts 279°
2026-05-05 04:10 32.72087 -117.13752 863 ft 126 kts 284°
2026-05-05 04:10 32.72332 -117.14748 681 ft 124 kts 284°
2026-05-05 04:10 32.72572 -117.15736 452 ft 125 kts 285°
2026-05-05 04:11 32.72809 -117.16726 265 ft 125 kts 285°
2026-05-05 04:11 32.73052 -117.17705 75 ft 124 kts 284°
2026-05-05 04:11 32.73262 -117.18561 23 ft 114 kts 285°
2026-05-05 04:11 32.73427 -117.19280 23 ft 66 kts 287°
2026-05-05 04:12 32.73515 -117.19632 20 ft 33 kts 285°
2026-05-05 04:12 32.73507 -117.19847 20 ft 9 kts 254°
2026-05-05 04:12 32.73504 -117.19861 20 ft 0 kts 251°
2026-05-05 04:12 32.73504 -117.19862 20 ft 0 kts 251°
2026-05-05 04:13 32.73503 -117.19864 20 ft 1 kts 251°
2026-05-05 04:14 32.73492 -117.19900 20 ft 7 kts 251°
2026-05-05 04:14 32.73448 -117.19955 20 ft 8 kts 198°
2026-05-05 04:14 32.73407 -117.19987 20 ft 3 kts 263°
2026-05-05 04:14 32.73402 -117.20020 20 ft 4 kts 252°
2026-05-05 04:15 32.73395 -117.20052 20 ft 1 kts 255°
2026-05-05 04:15 32.73394 -117.20057 20 ft 0 kts 255°